[TLELIST] Archives

 

[list_settings.list_name] Current TLEs

May 26th 2010 PST

HST 1 20580U 90037B 10145.10774846 .00000362 00000-0 14875-4 0 5718 2 20580 028.4707 030.5193 0003059 311.3797 048.6496 15.00975383901282 ISS (ZARYA) 1 25544U 98067A 10146.15649465 .00016305 00000-0 11438-3 0 2226 2 25544 051.6483 343.6053 0009847 357.0077 105.5681 15.74313103660006 CXO 1 25867U 99040B 10145.25000000 .00000034 00000-0 10000-3 0 4691 2 25867 067.0294 054.6807 8132151 275.2105 357.2325 00.37805371 6301 ____________________________________________________________________ These 2-Line ...Continue Reading

[list_settings.list_name] Current TLEs

May 25th 2010 PST

HST 1 20580U 90037B 10145.10774846 .00000362 00000-0 14875-4 0 5718 2 20580 028.4707 030.5193 0003059 311.3797 048.6496 15.00975383901282 ISS (ZARYA) 1 25544U 98067A 10145.13999001 .00024815 00000-0 17172-3 0 2166 2 25544 051.6473 348.8312 0010520 350.7215 106.9732 15.74291445659840 CXO 1 25867U 99040B 10145.25000000 .00000034 00000-0 10000-3 0 4691 2 25867 067.0294 054.6807 8132151 275.2105 357.2325 00.37805371 6301 ____________________________________________________________________ These 2-Line ...Continue Reading

[list_settings.list_name] Current TLEs

May 24th 2010 PST

HST 1 20580U 90037B 10144.11036028 .00000356 00000-0 14389-4 0 5703 2 20580 028.4700 037.0295 0003095 298.2433 061.7896 15.00975010901131 ISS (ZARYA) 1 25544U 98067A 10144.50058208 .00039682 00000-0 27147-3 0 2117 2 25544 051.6488 352.1162 0010683 352.1984 079.3161 15.74292332659740 CXO 1 25867U 99040B 10145.25000000 .00000034 00000-0 10000-3 0 4691 2 25867 067.0294 054.6807 8132151 275.2105 357.2325 00.37805371 6301 ____________________________________________________________________ These 2-Line ...Continue Reading

[list_settings.list_name] Current TLEs

May 23rd 2010 PST

HST 1 20580U 90037B 10143.11297284 .00000425 00000-0 19694-4 0 5694 2 20580 028.4690 043.5445 0003251 290.0024 070.0309 15.00974617900984 ISS (ZARYA) 1 25544U 98067A 10143.48501815 .00012266 00000-0 87518-4 0 2051 2 25544 051.6474 357.3275 0010009 348.7324 083.4065 15.74217531659587 CXO 1 25867U 99040B 10142.62500000 +.00000268 +00000-0 +10000-3 0 04682 2 25867 067.0115 054.7736 8125672 275.2313 359.8525 00.37805888006297 ____________________________________________________________________ These 2-Line ...Continue Reading

[list_settings.list_name] Current TLEs

May 22nd 2010 PST

HST 1 20580U 90037B 10141.11819311 .00000342 00000-0 13344-4 0 5686 2 20580 028.4686 056.5663 0003313 268.7388 091.2819 15.00973018900681 ISS (ZARYA) 1 25544U 98067A 10142.32875000 .00013367 00000-0 95081-4 0 1981 2 25544 051.6468 003.2670 0010073 344.8665 010.1362 15.74189993659398 CXO 1 25867U 99040B 10139.91666667 .00000349 00000-0 10000-3 0 4671 2 25867 066.9920 054.9296 8122195 275.2241 351.1169 00.37808243 6285 ____________________________________________________________________ These 2-Line ...Continue Reading

[list_settings.list_name] Current TLEs

May 21st 2010 PST

HST 1 20580U 90037B 10141.11819311 .00000342 00000-0 13344-4 0 5686 2 20580 028.4686 056.5663 0003313 268.7388 091.2819 15.00973018900681 ISS (ZARYA) 1 25544U 98067A 10141.20405251 .00014920 00000-0 10575-3 0 1928 2 25544 051.6480 009.0403 0009879 340.5821 116.4338 15.74157649659227 CXO 1 25867U 99040B 10139.91666667 .00000349 00000-0 10000-3 0 4671 2 25867 066.9920 054.9296 8122195 275.2241 351.1169 00.37808243 6285 ____________________________________________________________________ These 2-Line ...Continue Reading

[list_settings.list_name] Current TLEs

May 20th 2010 PST

HST 1 20580U 90037B 10140.12080359 .00000344 00000-0 13527-4 0 5672 2 20580 028.4685 063.0764 0003378 257.6508 102.3718 15.00972641900534 ISS (ZARYA) 1 25544U 98067A 10140.25267521 .00013142 00000-0 93836-4 0 1879 2 25544 051.6476 013.9245 0009855 337.8543 124.1442 15.74122185659076 CXO 1 25867U 99040B 10139.91666667 .00000349 00000-0 10000-3 0 4671 2 25867 066.9920 054.9296 8122195 275.2241 351.1169 00.37808243 6285 ____________________________________________________________________ These 2-Line ...Continue Reading

[list_settings.list_name] Current TLEs

May 19th 2010 PST

HST 1 20580U 90037B 10139.12341334 .00000340 00000-0 13181-4 0 5664 2 20580 028.4684 069.5885 0003483 247.4495 112.5705 15.00972193900381 ISS (ZARYA) 1 25544U 98067A 10139.18052563 .00013315 00000-0 95140-4 0 1802 2 25544 051.6470 019.4342 0009749 334.2407 168.0106 15.74091691658903 CXO 1 25867U 99040B 10139.91666667 .00000349 00000-0 10000-3 0 4671 2 25867 066.9920 054.9296 8122195 275.2241 351.1169 00.37808243 6285 ____________________________________________________________________ These 2-Line ...Continue Reading

[list_settings.list_name] Current TLEs

May 18th 2010 PST

HST 1 20580U 90037B 10136.13124397 .00000403 00000-0 17980-4 0 5650 2 20580 028.4674 089.1232 0003569 216.6672 143.3634 15.00971439899937 ISS (ZARYA) 1 25544U 98067A 10138.28463123 .00011469 00000-0 82669-4 0 1743 2 25544 051.6474 024.0314 0009857 330.0955 131.9827 15.74063743658760 CXO 1 25867U 99040B 10137.29166667 .00000321 00000-0 10000-3 0 4664 2 25867 066.9866 055.1141 8115396 275.2086 353.7295 00.37800899 6274 ____________________________________________________________________ These 2-Line ...Continue Reading

[list_settings.list_name] Current TLEs

May 17th 2010 PST

HST 1 20580U 90037B 10136.13124397 .00000403 00000-0 17980-4 0 5650 2 20580 028.4674 089.1232 0003569 216.6672 143.3634 15.00971439899937 ISS (ZARYA) 1 25544U 98067A 10137.50506944 .00040133 00000-0 27729-3 0 1707 2 25544 051.6455 028.0392 0009599 326.4983 035.1636 15.74071491658641 CXO 1 25867U 99040B 10137.29166667 .00000321 00000-0 10000-3 0 4664 2 25867 066.9866 055.1141 8115396 275.2086 353.7295 00.37800899 6274 ____________________________________________________________________ These 2-Line ...Continue Reading
  • This mailing list is a public mailing list - anyone may join or leave, at any time.
  • This mailing list is announce-only.

International Space Station (ISS) / Hubble Space Telescope (HST) / Chandra X-Ray Observatory Orbital Data via EMAIL

Privacy Policy:

Private list